FW8247 Weather Reports


time (UTC)temp
F
wind
direction
speed
knots
gust
knots
rain 1hr
in
rain 24hr
in
rain mn
in
humidity
%
barometer
mb
20260506135702 36 96 0.0 0.0 0.00 0.00 0.00 99 1022.5
20260506135159 35 99 0.0 0.0 0.00 0.00 0.00 99 1022.4
20260506134655 35 109 0.0 0.0 0.00 0.00 0.00 99 1022.0
20260506134151 35 109 0.0 0.0 0.00 0.00 0.00 99 1022.3
20260506133649 34 110 0.0 0.0 0.00 0.00 0.00 99 1022.3
20260506133145 33 107 0.0 0.0 0.00 0.00 0.00 99 1022.2
20260506132643 33 99 0.0 0.0 0.00 0.00 0.00 99 1022.2
20260506132139 33 99 0.0 0.0 0.00 0.00 0.00 99 1022.0
20260506131637 33 99 0.0 0.0 0.00 0.00 0.00 99 1021.9
20260506131133 33 99 0.0 0.0 0.00 0.00 0.00 99 1021.7
20260506130630 33 99 0.0 0.0 0.00 0.00 0.00 99 1021.8
20260506130128 33 99 0.0 0.0 0.00 0.00 0.00 99 1022.0
20260506125626 33 99 0.0 0.0 0.00 0.00 0.00 99 1021.7
20260506125123 33 99 0.0 0.0 0.00 0.00 0.00 99 1021.8
20260506124621 33 99 0.0 0.0 0.00 0.00 0.00 99 1021.7
20260506124119 33 99 0.0 0.0 0.00 0.00 0.00 99 1021.7
20260506123616 34 99 0.0 0.0 0.00 0.00 0.00 99 1021.4
20260506123115 34 99 0.0 0.0 0.00 0.00 0.00 99 1021.6
20260506122611 33 99 0.0 0.0 0.00 0.00 0.00 99 1021.2
20260506122109 34 99 0.0 0.0 0.00 0.00 0.00 99 1021.3
20260506121606 34 99 0.0 0.0 0.00 0.00 0.00 99 1021.1
20260506121102 34 99 0.0 0.0 0.00 0.00 0.00 99 1021.1
20260506120601 34 99 0.0 0.0 0.00 0.00 0.00 99 1021.0
20260506120057 34 99 0.0 0.0 0.00 0.00 0.00 99 1021.0
20260506115555 35 99 0.0 0.0 0.00 0.00 0.00 99 1021.0
20260506115054 35 104 0.0 0.0 0.00 0.00 0.00 99 1021.0
20260506114550 35 106 0.0 0.0 0.00 0.00 0.00 99 1020.9
20260506114049 35 96 0.0 0.0 0.00 0.00 0.00 99 1020.9
20260506113546 35 96 0.0 0.0 0.00 0.00 0.00 99 1020.7
20260506113044 35 96 0.0 0.0 0.00 0.00 0.00 99 1021.0
20260506112540 35 96 0.0 0.0 0.00 0.00 0.00 99 1020.6
20260506112037 35 96 0.0 0.0 0.00 0.00 0.00 99 1020.9
20260506111535 35 96 0.0 0.0 0.00 0.00 0.00 99 1020.6
20260506111032 35 96 0.0 0.0 0.00 0.00 0.00 99 1020.5
20260506110530 35 96 0.0 0.0 0.00 0.00 0.00 99 1020.4
20260506110027 36 96 0.0 0.0 0.00 0.00 0.00 99 1020.4
20260506105523 36 95 0.0 0.0 0.00 0.00 0.00 99 1020.6
20260506105020 36 99 0.0 0.0 0.00 0.00 0.00 99 1020.1
20260506104518 36 99 0.0 0.0 0.00 0.00 0.00 99 1020.3
20260506104016 36 99 0.0 0.0 0.00 0.00 0.00 99 1020.0
20260506103513 36 99 0.0 0.0 0.00 0.00 0.00 99 1019.9
20260506103009 36 102 0.0 0.0 0.00 0.00 0.00 99 1019.9
20260506102508 36 92 0.0 0.0 0.00 0.00 0.00 99 1019.9
20260506102005 36 92 0.0 0.0 0.00 0.00 0.00 99 1020.0
20260506101501 37 92 0.0 0.0 0.00 0.00 0.00 99 1019.8
20260506100959 37 92 0.0 0.0 0.00 0.00 0.00 99 1019.8
20260506100457 37 92 0.0 0.0 0.00 0.00 0.00 99 1019.8
20260506095954 37 92 0.0 0.0 0.00 0.00 0.00 99 1019.7
20260506095453 37 92 0.0 0.0 0.00 0.00 0.00 99 1019.7
20260506094949 37 92 0.0 0.0 0.00 0.00 0.00 99 1019.4
20260506094447 37 92 0.0 0.0 0.00 0.00 0.00 99 1019.5
20260506093944 37 92 0.0 0.0 0.00 0.00 0.00 99 1019.5
20260506093443 37 92 0.0 0.0 0.00 0.00 0.00 99 1019.4
20260506092940 37 92 0.0 0.0 0.00 0.00 0.00 99 1019.1
20260506092438 38 92 0.0 0.0 0.00 0.00 0.00 99 1019.4
20260506091934 38 92 0.0 0.0 0.00 0.00 0.00 99 1019.4
20260506091432 38 92 0.0 0.0 0.00 0.00 0.00 99 1019.3
20260506090929 38 99 0.0 0.0 0.00 0.00 0.00 99 1019.2
20260506090427 38 100 0.0 0.0 0.00 0.00 0.00 99 1019.1
20260506085923 38 104 0.0 0.0 0.00 0.00 0.00 99 1019.1
20260506085420 38 85 0.0 0.0 0.00 0.00 0.00 99 1019.2
20260506084916 39 96 0.0 0.0 0.00 0.00 0.00 99 1019.1
20260506084414 39 96 0.0 0.0 0.00 0.00 0.00 99 1019.1
20260506083910 39 79 0.0 0.0 0.00 0.00 0.00 99 1019.3
20260506083407 39 94 0.0 0.0 0.00 0.00 0.00 99 1019.2
20260506082904 39 96 0.0 0.0 0.00 0.00 0.00 99 1019.1
20260506082401 39 105 0.0 0.0 0.00 0.00 0.00 99 1019.2
20260506081857 39 93 0.0 0.0 0.00 0.00 0.00 99 1018.9
20260506081355 39 92 0.0 0.0 0.00 0.00 0.00 99 1018.9
20260506080852 40 92 0.0 0.0 0.00 0.00 0.00 99 1018.9
20260506080349 40 92 0.0 0.0 0.00 0.00 0.00 99 1018.9
20260506073333 40 96 0.0 0.0 0.00 0.00 0.00 99 1018.6
20260506072830 40 96 0.0 0.0 0.00 0.00 0.00 98 1018.6
20260506072328 39 96 0.0 0.0 0.00 0.00 0.00 98 1018.7
20260506071825 40 93 0.0 0.0 0.00 0.00 0.00 98 1018.5
20260506071323 41 96 0.0 0.0 0.00 0.00 0.00 98 1018.3
20260506070820 41 96 0.0 0.0 0.00 0.00 0.00 98 1018.2
20260506070317 41 92 0.0 0.0 0.00 0.00 0.00 98 1018.1
20260506062254 43 106 0.0 0.0 0.00 0.00 0.00 97 1017.7
20260506061750 43 99 0.0 0.0 0.00 0.00 0.00 97 1017.5
20260506061247 44 99 0.0 0.0 0.00 0.00 0.00 97 1017.5
20260506060745 44 96 0.0 0.0 0.00 0.00 0.00 96 1017.5
20260506060243 44 105 0.0 0.0 0.00 0.00 0.00 96 1017.6
20260506051214 48 96 0.0 0.0 0.00 0.00 0.00 92 1017.0
20260506050713 48 96 0.0 0.0 0.00 0.00 0.00 92 1016.9
20260506050209 48 96 0.0 0.0 0.00 0.00 0.00 92 1016.8
20260506044701 49 86 0.9 0.9 0.00 0.00 0.00 91 1016.8
20260506044157 49 105 0.0 0.0 0.00 0.00 0.00 91 1016.7
20260506043654 49 103 0.0 0.0 0.00 0.00 0.00 91 1016.6
20260506043152 49 89 0.0 0.0 0.00 0.00 0.00 91 1016.4
20260506042651 49 89 0.0 0.0 0.00 0.00 0.00 90 1016.6
20260506042149 49 96 0.0 0.0 0.00 0.00 0.00 90 1016.3
20260506041652 50 108 0.0 0.0 0.00 0.00 0.00 89 1016.6
20260506041143 50 114 0.0 0.0 0.00 0.00 0.00 89 1016.4
20260506040641 50 106 0.0 0.9 0.00 0.00 0.00 89 1016.3
20260506040138 50 91 0.0 0.0 0.00 0.00 0.00 88 1016.3
20260506035635 51 88 0.0 0.0 0.00 0.00 0.00 87 1016.3
20260506035131 51 104 0.0 0.0 0.00 0.00 0.00 86 1015.7
20260506034629 51 106 0.0 0.0 0.00 0.00 0.00 85 1015.8
20260506034125 51 90 0.0 0.0 0.00 0.00 0.00 84 1015.7
20260506033623 52 89 0.0 0.0 0.00 0.00 0.00 83 1015.7
20260506033120 52 94 0.0 0.0 0.00 0.00 0.00 82 1015.5
20260506032617 53 96 0.0 0.0 0.00 0.00 0.00 81 1015.6
20260506032114 53 99 0.0 0.0 0.00 0.00 0.00 80 1015.5
20260506031611 53 90 0.0 0.0 0.00 0.00 0.00 80 1015.2
20260506031108 53 111 0.0 0.0 0.00 0.00 0.00 80 1015.4
20260506030607 53 82 0.0 0.0 0.00 0.00 0.00 80 1015.0
20260506030103 53 97 0.0 0.0 0.00 0.00 0.00 79 1015.2
20260506025600 54 124 0.0 0.9 0.00 0.00 0.00 78 1015.1
20260506025056 54 162 1.7 1.7 0.00 0.00 0.00 78 1015.1
20260506024554 55 160 2.6 2.6 0.00 0.00 0.00 78 1015.0
20260506024050 55 143 0.9 0.9 0.00 0.00 0.00 77 1014.9
20260506023545 56 101 0.9 1.7 0.00 0.00 0.00 76 1014.8
20260506023044 57 70 0.9 0.9 0.00 0.00 0.00 73 1014.9
20260506022541 58 94 0.0 0.0 0.00 0.00 0.00 71 1014.6
20260506022038 59 113 0.0 0.0 0.00 0.00 0.00 68 1014.4
20260506021536 60 123 1.7 2.6 0.00 0.00 0.00 68 1014.4
20260506021033 60 113 0.9 0.9 0.00 0.00 0.00 65 1014.5
20260506020530 60 156 0.9 0.9 0.00 0.00 0.00 65 1014.2
20260506020027 61 146 0.9 0.9 0.00 0.00 0.00 63 1014.3
20260506015525 60 126 0.9 0.9 0.00 0.00 0.00 66 1014.2
20260506015021 59 143 0.9 1.7 0.00 0.00 0.00 67 1014.3
20260506014519 59 111 0.9 0.9 0.00 0.00 0.00 67 1014.3
20260506014009 59 94 0.0 0.0 0.00 0.00 0.00 67 1013.9
20260506013507 59 215 2.6 2.6 0.00 0.00 0.00 64 1014.2
20260506013004 61 57 0.9 1.7 0.00 0.00 0.00 60 1013.9
20260506012459 62 204 0.0 0.0 0.00 0.00 0.00 55 1014.2
20260506011956 64 73 1.7 1.7 0.00 0.00 0.00 51 1013.8
20260506011453 65 39 1.7 1.7 0.00 0.00 0.00 47 1013.8
20260506010950 64 43 1.7 2.6 0.00 0.00 0.00 47 1014.1
20260506010449 62 54 1.7 1.7 0.00 0.00 0.00 50 1013.9
20260506005944 62 56 0.9 0.9 0.00 0.00 0.00 50 1013.6
20260506005444 64 68 1.7 1.7 0.00 0.00 0.00 48 1013.7
20260506004938 65 61 0.0 0.0 0.00 0.00 0.00 46 1014.1
20260506004436 65 45 0.0 0.9 0.00 0.00 0.00 48 1013.7
20260506003932 65 11 2.6 2.6 0.00 0.00 0.00 46 1013.6
20260506003429 65 55 1.7 1.7 0.00 0.00 0.00 46 1013.8
20260506002925 65 332 2.6 4.3 0.00 0.00 0.00 46 1013.7
20260506002421 64 4 1.7 2.6 0.00 0.00 0.00 48 1013.7
20260506001917 63 67 0.9 0.9 0.00 0.00 0.00 49 1013.6
20260506001415 64 74 0.9 0.9 0.00 0.00 0.00 47 1013.3
20260506000912 64 58 1.7 2.6 0.00 0.00 0.00 47 1013.8
20260506000409 64 70 2.6 2.6 0.00 0.00 0.00 47 1013.8
20260505235905 65 61 1.7 2.6 0.00 0.00 0.00 48 1013.7
20260505235404 65 61 0.9 0.9 0.00 0.00 0.00 47 1013.6
20260505234900 64 59 0.0 0.9 0.00 0.00 0.00 48 1013.8
20260505234358 64 62 0.0 0.9 0.00 0.00 0.00 47 1013.7
20260505233854 63 68 1.7 1.7 0.00 0.00 0.00 49 1013.7
20260505233352 64 67 1.7 1.7 0.00 0.00 0.00 50 1013.8
20260505232850 65 80 2.6 4.3 0.00 0.00 0.00 48 1013.8
20260505232348 63 76 1.7 1.7 0.00 0.00 0.00 50 1013.8
20260505231844 63 299 2.6 4.3 0.00 0.00 0.00 48 1013.5
20260505231341 63 32 2.6 2.6 0.00 0.00 0.00 49 1013.8
20260505230839 65 45 2.6 4.3 0.00 0.00 0.00 49 1013.7
20260505230336 63 19 2.6 2.6 0.00 0.00 0.00 49 1013.7
20260505225833 63 62 0.9 0.9 0.00 0.00 0.00 50 1013.8
20260505225330 64 22 2.6 4.3 0.00 0.00 0.00 51 1013.6
20260505224825 63 44 1.7 2.6 0.00 0.00 0.00 50 1013.9
20260505224323 63 86 4.3 6.1 0.00 0.00 0.00 50 1013.9
20260505223820 62 48 2.6 4.3 0.00 0.00 0.00 52 1014.2
20260505223317 64 261 2.6 2.6 0.00 0.00 0.00 50 1013.9
20260505222813 62 41 1.7 4.3 0.00 0.00 0.00 53 1014.2
20260505222309 62 70 0.9 0.9 0.00 0.00 0.00 50 1014.1
20260505221806 62 59 0.9 0.9 0.00 0.00 0.00 52 1014.2
20260505221303 61 165 0.9 2.6 0.00 0.00 0.00 51 1014.3
20260505220800 62 41 6.1 8.7 0.00 0.00 0.00 50 1014.2
20260505220257 61 56 2.6 4.3 0.00 0.00 0.00 56 1014.3
20260505215755 61 68 1.7 2.6 0.00 0.00 0.00 55 1014.4
20260505215253 61 71 0.9 0.9 0.00 0.00 0.00 54 1014.3
20260505214750 61 102 2.6 2.6 0.00 0.00 0.00 54 1014.5
20260505214247 59 82 0.9 0.9 0.00 0.00 0.00 57 1014.4
20260505213745 60 62 2.6 4.3 0.00 0.00 0.00 54 1014.5
20260505213242 61 91 1.7 2.6 0.00 0.00 0.00 55 1014.6
20260505212737 60 115 2.6 4.3 0.00 0.00 0.00 55 1014.5
20260505212235 60 86 0.0 0.9 0.00 0.00 0.00 58 1014.8
20260505211732 60 65 2.6 2.6 0.00 0.00 0.00 56 1014.8
20260505211229 60 86 0.0 0.9 0.00 0.00 0.00 59 1014.5
20260505210726 59 56 2.6 4.3 0.00 0.00 0.00 58 1014.4
20260505210222 59 84 4.3 5.2 0.00 0.00 0.00 56 1014.4
20260505205720 59 70 2.6 4.3 0.00 0.00 0.00 59 1014.4
20260505205218 58 57 5.2 7.0 0.00 0.00 0.00 58 1014.6
20260505204714 59 16 2.6 2.6 0.00 0.00 0.00 61 1014.6
20260505204212 60 55 3.5 5.2 0.00 0.00 0.00 59 1014.5
20260505203709 58 73 3.5 4.3 0.00 0.00 0.00 60 1014.8
20260505203206 59 25 4.3 5.2 0.00 0.00 0.00 57 1014.4
20260505202702 57 29 3.5 6.1 0.00 0.00 0.00 61 1014.5
20260505202158 58 35 1.7 1.7 0.00 0.00 0.00 62 1014.6
20260505201654 58 99 0.9 0.9 0.00 0.00 0.00 63 1014.8
20260505201153 57 241 3.5 5.2 0.00 0.00 0.00 66 1014.5
20260505200651 57 259 4.3 5.2 0.00 0.00 0.00 64 1014.5
20260505200147 57 41 0.9 2.6 0.00 0.00 0.00 67 1014.8
20260505195643 57 72 1.7 4.3 0.00 0.00 0.00 69 1014.8
20260505195140 56 234 3.5 5.2 0.00 0.00 0.00 70 1014.6
20260505194638 55 339 3.5 5.2 0.00 0.00 0.00 72 1015.1
20260505194133 56 208 2.6 4.3 0.00 0.00 0.00 69 1014.8
20260505193630 55 271 1.7 1.7 0.00 0.00 0.00 72 1015.0
20260505193127 56 36 0.9 1.7 0.00 0.00 0.00 73 1015.0
20260505192626 55 55 1.7 2.6 0.00 0.00 0.00 75 1014.8
20260505192123 56 65 0.9 1.7 0.00 0.00 0.00 69 1014.9
20260505191622 54 39 0.0 0.9 0.00 0.00 0.00 73 1015.0
20260505191119 54 320 4.3 6.1 0.00 0.00 0.00 74 1015.2
20260505190615 54 71 0.9 1.7 0.00 0.00 0.00 74 1015.0
20260505190110 53 55 2.6 2.6 0.00 0.00 0.00 75 1015.0
20260505185607 52 137 0.0 0.9 0.00 0.00 0.00 81 1014.6
20260505185103 51 153 1.7 1.7 0.00 0.00 0.00 82 1014.9
20260505184600 51 74 0.9 1.7 0.00 0.00 0.00 81 1014.8
20260505184056 52 253 2.6 2.6 0.00 0.00 0.00 82 1015.0
20260505183553 50 93 0.0 0.9 0.00 0.00 0.00 82 1015.0
20260505183051 50 359 0.9 1.7 0.00 0.00 0.00 84 1015.0
20260505182547 50 112 0.0 0.0 0.00 0.00 0.00 82 1014.8
20260505182044 51 34 0.0 0.9 0.00 0.00 0.00 83 1014.8
20260505181541 49 112 0.0 0.0 0.00 0.00 0.00 85 1014.8
20260505181038 48 96 0.0 0.0 0.00 0.00 0.00 86 1014.9
20260505180533 48 86 0.0 0.0 0.00 0.00 0.00 87 1014.8
20260505180032 48 276 1.7 2.6 0.00 0.00 0.00 86 1014.8
20260505175532 47 133 0.9 0.9 0.00 0.00 0.00 87 1014.9
20260505175029 47 176 1.7 1.7 0.00 0.00 0.00 88 1014.8
20260505174526 46 147 0.9 1.7 0.00 0.00 0.00 89 1014.6
20260505174022 47 101 0.0 0.0 0.00 0.00 0.00 88 1014.8
20260505173519 47 79 0.9 0.9 0.00 0.00 0.00 89 1014.5
20260505173016 46 120 0.0 0.9 0.00 0.00 0.00 87 1014.6
20260505172514 46 86 0.0 0.0 0.00 0.00 0.00 91 1014.5
20260505172009 44 80 0.0 0.0 0.00 0.00 0.00 91 1014.9
20260505171505 44 99 0.0 0.0 0.00 0.00 0.00 93 1014.6
20260505171002 43 108 0.0 0.0 0.00 0.00 0.00 95 1014.8
20260505170458 42 109 0.0 0.0 0.00 0.00 0.00 96 1014.6
20260505165954 42 110 0.0 0.0 0.00 0.00 0.00 98 1014.5
20260505165450 42 124 0.0 0.0 0.00 0.00 0.00 99 1014.4
20260505164946 42 101 0.0 0.0 0.00 0.00 0.00 99 1014.2
20260505164442 41 87 0.0 0.0 0.00 0.00 0.00 99 1014.4
20260505163940 41 87 0.0 0.0 0.00 0.00 0.00 99 1014.3
20260505163439 41 91 0.0 0.0 0.00 0.00 0.00 99 1014.4
20260505162938 41 91 0.0 0.0 0.00 0.00 0.00 99 1014.3
20260505162433 40 91 0.0 0.0 0.00 0.00 0.00 99 1014.3
20260505161930 40 88 0.0 0.0 0.00 0.00 0.00 99 1014.3
20260505161426 40 110 0.0 0.9 0.00 0.00 0.00 99 1014.3
20260505160924 40 104 0.0 0.0 0.00 0.00 0.00 99 1014.1
20260505160422 40 103 0.0 0.0 0.00 0.00 0.00 99 1014.3
20260505152858 39 84 0.0 0.0 0.00 0.00 0.00 99 1013.9
20260505152350 39 82 0.0 0.0 0.00 0.00 0.00 99 1013.8
20260505151849 39 76 0.0 0.0 0.00 0.00 0.00 99 1013.7
20260505151346 39 137 0.0 0.0 0.00 0.00 0.00 99 1013.7
20260505150843 39 122 0.0 0.0 0.00 0.00 0.00 99 1013.5
20260505150340 39 90 0.0 0.0 0.00 0.00 0.00 99 1013.5
20260505140305 38 98 0.0 0.0 0.00 0.00 0.00 99 1012.9